Location: Conestogo Lake
(43.6739°N, 80.7211°W)
Time: 22:09:16
(UTC-04:00)

ISS - Visible Passes

Search period start: 16 November 2018 00:00
Search period end: 26 November 2018 00:00
Orbit: 402 x 408 km, 51.6° (Epoch: 17 November)

Date Brightness Start Highest point End Pass type
(mag) Time Alt. Az. Time Alt. Az. Time Alt. Az.
22 Nov -1.4 19:50:43 10° S 19:51:33 15° S 19:51:33 15° S visible
23 Nov -1.6 18:59:54 10° SSE 19:01:25 13° SE 19:01:54 12° ESE visible
23 Nov -0.6 20:34:12 10° WSW 20:34:35 13° WSW 20:34:35 13° WSW visible
24 Nov -3.2 19:42:10 10° SW 19:44:49 45° S 19:44:49 45° S visible
25 Nov -2.6 18:50:27 10° SSW 18:53:18 28° SE 18:54:58 18° E visible
25 Nov -1.0 20:26:33 10° W 20:27:39 19° W 20:27:39 19° W visible
